Time,TemperatureF,DewpointF,PressureIn,WindDirection,WindDirectionDegrees,WindSpeedMPH,WindSpeedGustMPH,Humidity,HourlyPrecipIn,Conditions,Clouds,dailyrainin,SoftwareType,DateUTC
2013-01-03 00:02:00,16.0,0.0,30.24,SSW,210,8.0,-999.0,48,-99.99,,,-99.99,,2013-01-03 07:02:00,
2013-01-03 00:11:00,16.0,0.0,30.24,North,0,0.0,-999.0,48,-99.99,,,-99.99,,2013-01-03 07:11:00,
2013-01-03 00:22:00,16.0,0.0,30.24,North,0,0.0,-999.0,48,-99.99,,,-99.99,,2013-01-03 07:22:00,
2013-01-03 00:32:00,14.0,-2.0,30.24,SSW,210,6.0,-999.0,47,-99.99,,,-99.99,,2013-01-03 07:32:00,
2013-01-03 00:42:00,14.0,-2.0,30.24,SSW,210,6.0,-999.0,47,-99.99,,,-99.99,,2013-01-03 07:42:00,
2013-01-03 00:52:00,12.0,-2.0,30.23,SSW,200,9.0,-999.0,51,-99.99,,,-99.99,,2013-01-03 07:52:00,
2013-01-03 01:02:00,12.0,-2.0,30.23,SSW,200,9.0,-999.0,51,-99.99,,,-99.99,,2013-01-03 08:02:00,
2013-01-03 01:11:00,12.0,-2.0,30.21,SSW,200,8.0,-999.0,51,-99.99,,,-99.99,,2013-01-03 08:11:00,
2013-01-03 01:22:00,12.0,-2.0,30.21,SSW,200,8.0,-999.0,51,-99.99,,,-99.99,,2013-01-03 08:22:00,
2013-01-03 01:32:00,10.0,-2.0,30.20,SSW,210,8.0,-999.0,56,-99.99,,,-99.99,,2013-01-03 08:32:00,
2013-01-03 01:42:00,10.0,-2.0,30.20,SSW,210,8.0,-999.0,56,-99.99,,,-99.99,,2013-01-03 08:42:00,
2013-01-03 01:52:00,10.0,-2.0,30.20,SSW,210,9.0,-999.0,56,-99.99,,,-99.99,,2013-01-03 08:52:00,
2013-01-03 02:02:00,10.0,-2.0,30.20,SSW,210,9.0,-999.0,56,-99.99,,,-99.99,,2013-01-03 09:02:00,
2013-01-03 02:11:00,10.0,-2.0,30.20,SSW,210,9.0,-999.0,56,-99.99,,,-99.99,,2013-01-03 09:11:00,
2013-01-03 02:22:00,10.0,-2.0,30.20,SSW,210,9.0,-999.0,56,-99.99,,,-99.99,,2013-01-03 09:22:00,
2013-01-03 02:33:00,10.0,-2.0,30.20,SSW,210,6.0,-999.0,56,-99.99,,,-99.99,,2013-01-03 09:33:00,
2013-01-03 02:43:00,10.0,-2.0,30.20,SSW,210,6.0,-999.0,56,-99.99,,,-99.99,,2013-01-03 09:43:00,
2013-01-03 02:53:00,9.0,-2.0,30.21,SSW,210,7.0,-999.0,60,-99.99,,,-99.99,,2013-01-03 09:53:00,
2013-01-03 03:02:00,9.0,-2.0,30.21,SSW,210,7.0,-999.0,60,-99.99,,,-99.99,,2013-01-03 10:02:00,
2013-01-03 03:11:00,9.0,-2.0,30.21,SSW,210,7.0,-999.0,60,-99.99,,,-99.99,,2013-01-03 10:11:00,
2013-01-03 03:22:00,9.0,-2.0,30.21,SSW,210,7.0,-999.0,60,-99.99,,,-99.99,,2013-01-03 10:22:00,
2013-01-03 03:32:00,10.0,-2.0,30.20,SSW,210,7.0,-999.0,56,-99.99,,,-99.99,,2013-01-03 10:32:00,
2013-01-03 03:43:00,10.0,-2.0,30.20,SSW,210,7.0,-999.0,56,-99.99,,,-99.99,,2013-01-03 10:43:00,
2013-01-03 03:52:00,12.0,0.0,30.19,SSW,200,14.0,-999.0,56,-99.99,,,-99.99,,2013-01-03 10:52:00,
2013-01-03 04:02:00,12.0,0.0,30.19,SSW,200,14.0,-999.0,56,-99.99,,,-99.99,,2013-01-03 11:02:00,
2013-01-03 04:11:00,18.0,1.0,30.17,South,190,15.0,22.0,48,-99.99,,,-99.99,,2013-01-03 11:11:00,
2013-01-03 04:22:00,18.0,1.0,30.17,South,190,15.0,22.0,48,-99.99,,,-99.99,,2013-01-03 11:22:00,
2013-01-03 04:32:00,18.0,1.0,30.16,SSW,200,17.0,27.0,48,-99.99,,,-99.99,,2013-01-03 11:32:00,
2013-01-03 04:42:00,18.0,1.0,30.16,SSW,200,17.0,27.0,48,-99.99,,,-99.99,,2013-01-03 11:42:00,
2013-01-03 04:52:00,18.0,1.0,30.16,SSW,200,16.0,27.0,48,-99.99,,,-99.99,,2013-01-03 11:52:00,
2013-01-03 05:02:00,18.0,1.0,30.16,SSW,200,16.0,27.0,48,-99.99,,,-99.99,,2013-01-03 12:02:00,
2013-01-03 05:12:00,18.0,1.0,30.16,SSW,200,16.0,27.0,48,-99.99,,,-99.99,,2013-01-03 12:12:00,
2013-01-03 05:22:00,18.0,1.0,30.16,SSW,200,16.0,27.0,48,-99.99,,,-99.99,,2013-01-03 12:22:00,
2013-01-03 05:32:00,18.0,1.0,30.15,SSW,200,20.0,28.0,48,-99.99,,,-99.99,,2013-01-03 12:32:00,
2013-01-03 05:43:00,18.0,1.0,30.15,SSW,200,20.0,28.0,48,-99.99,,,-99.99,,2013-01-03 12:43:00,
2013-01-03 05:53:00,18.0,1.0,30.15,SSW,200,18.0,28.0,48,-99.99,,,-99.99,,2013-01-03 12:53:00,
2013-01-03 06:02:00,18.0,1.0,30.15,SSW,200,18.0,28.0,48,-99.99,,,-99.99,,2013-01-03 13:02:00,
2013-01-03 06:12:00,18.0,1.0,30.15,SSW,200,18.0,28.0,48,-99.99,,,-99.99,,2013-01-03 13:12:00,
2013-01-03 06:22:00,18.0,1.0,30.15,SSW,200,18.0,28.0,48,-99.99,,,-99.99,,2013-01-03 13:22:00,
2013-01-03 06:32:00,19.0,1.0,30.14,SSW,200,22.0,30.0,44,-99.99,,,-99.99,,2013-01-03 13:32:00,
2013-01-03 06:42:00,19.0,1.0,30.14,SSW,200,22.0,30.0,44,-99.99,,,-99.99,,2013-01-03 13:42:00,
2013-01-03 06:53:00,19.0,1.0,30.14,SSW,200,15.0,22.0,44,-99.99,,,-99.99,,2013-01-03 13:53:00,
2013-01-03 07:02:00,19.0,1.0,30.14,SSW,200,15.0,22.0,44,-99.99,,,-99.99,,2013-01-03 14:02:00,
2013-01-03 07:12:00,19.0,1.0,30.13,SSW,200,20.0,28.0,44,-99.99,,,-99.99,,2013-01-03 14:12:00,
2013-01-03 07:22:00,19.0,1.0,30.13,SSW,200,20.0,28.0,44,-99.99,,,-99.99,,2013-01-03 14:22:00,
2013-01-03 07:32:00,19.0,1.0,30.13,South,190,14.0,22.0,44,-99.99,,,-99.99,,2013-01-03 14:32:00,
2013-01-03 07:42:00,19.0,1.0,30.13,South,190,14.0,22.0,44,-99.99,,,-99.99,,2013-01-03 14:42:00,
2013-01-03 07:53:00,19.0,1.0,30.14,SSW,200,8.0,-999.0,44,-99.99,,,-99.99,,2013-01-03 14:53:00,
2013-01-03 08:02:00,19.0,1.0,30.14,SSW,200,8.0,-999.0,44,-99.99,,,-99.99,,2013-01-03 15:02:00,
2013-01-03 08:11:00,19.0,1.0,30.14,SSW,200,8.0,-999.0,44,-99.99,,,-99.99,,2013-01-03 15:11:00,
2013-01-03 08:22:00,19.0,1.0,30.14,SSW,200,8.0,-999.0,44,-99.99,,,-99.99,,2013-01-03 15:22:00,
2013-01-03 08:33:00,21.0,3.0,30.14,South,190,13.0,23.0,45,-99.99,,,-99.99,,2013-01-03 15:33:00,
2013-01-03 08:43:00,21.0,3.0,30.14,South,190,13.0,23.0,45,-99.99,,,-99.99,,2013-01-03 15:43:00,
2013-01-03 08:53:00,23.0,1.0,30.15,SSW,200,12.0,24.0,38,-99.99,,,-99.99,,2013-01-03 15:53:00,
2013-01-03 09:02:00,23.0,1.0,30.15,SSW,200,12.0,24.0,38,-99.99,,,-99.99,,2013-01-03 16:02:00,
2013-01-03 09:11:00,25.0,3.0,30.15,South,180,15.0,24.0,38,-99.99,,,-99.99,,2013-01-03 16:11:00,
2013-01-03 09:22:00,25.0,3.0,30.15,South,180,15.0,24.0,38,-99.99,,,-99.99,,2013-01-03 16:22:00,
2013-01-03 09:32:00,25.0,3.0,30.16,South,190,12.0,22.0,38,-99.99,,,-99.99,,2013-01-03 16:32:00,
2013-01-03 09:43:00,25.0,3.0,30.16,South,190,12.0,22.0,38,-99.99,,,-99.99,,2013-01-03 16:43:00,
2013-01-03 09:52:00,25.0,3.0,30.14,South,190,18.0,25.0,38,-99.99,,,-99.99,,2013-01-03 16:52:00,
2013-01-03 10:02:00,25.0,3.0,30.14,South,190,18.0,25.0,38,-99.99,,,-99.99,,2013-01-03 17:02:00,
2013-01-03 10:12:00,27.0,3.0,30.14,South,190,27.0,31.0,35,-99.99,,,-99.99,,2013-01-03 17:12:00,
2013-01-03 10:22:00,27.0,3.0,30.14,South,190,27.0,31.0,35,-99.99,,,-99.99,,2013-01-03 17:22:00,
2013-01-03 10:32:00,27.0,3.0,30.14,South,190,27.0,31.0,35,-99.99,,,-99.99,,2013-01-03 17:32:00,
2013-01-03 10:42:00,27.0,3.0,30.14,South,190,22.0,36.0,35,-99.99,,,-99.99,,2013-01-03 17:42:00,
2013-01-03 10:52:00,27.0,3.0,30.14,South,190,27.0,37.0,35,-99.99,,,-99.99,,2013-01-03 17:52:00,
2013-01-03 11:03:00,27.0,3.0,30.14,South,190,27.0,37.0,35,-99.99,,,-99.99,,2013-01-03 18:03:00,
2013-01-03 11:12:00,28.0,5.0,30.13,South,190,23.0,31.0,36,-99.99,,,-99.99,,2013-01-03 18:12:00,
2013-01-03 11:22:00,28.0,5.0,30.13,South,190,23.0,31.0,36,-99.99,,,-99.99,,2013-01-03 18:22:00,
2013-01-03 11:33:00,28.0,7.0,30.13,South,190,23.0,31.0,39,-99.99,,,-99.99,,2013-01-03 18:33:00,
2013-01-03 11:42:00,28.0,7.0,30.13,South,190,23.0,31.0,39,-99.99,,,-99.99,,2013-01-03 18:42:00,
2013-01-03 11:52:00,30.0,7.0,30.13,South,190,22.0,32.0,36,-99.99,,,-99.99,,2013-01-03 18:52:00,
2013-01-03 12:02:00,30.0,7.0,30.13,South,190,22.0,32.0,36,-99.99,,,-99.99,,2013-01-03 19:02:00,
2013-01-03 12:12:00,30.0,5.0,30.12,South,190,24.0,36.0,33,-99.99,,,-99.99,,2013-01-03 19:12:00,
2013-01-03 13:02:00,32.0,7.0,30.11,South,190,24.0,33.0,34,-99.99,,,-99.99,,2013-01-03 20:02:00,
2013-01-03 13:12:00,32.0,7.0,30.11,South,190,24.0,33.0,34,-99.99,,,-99.99,,2013-01-03 20:12:00,
2013-01-03 13:22:00,32.0,7.0,30.11,South,190,24.0,33.0,34,-99.99,,,-99.99,,2013-01-03 20:22:00,
2013-01-03 13:33:00,34.0,7.0,30.10,SSW,200,24.0,31.0,31,-99.99,,,-99.99,,2013-01-03 20:33:00,
2013-01-03 13:43:00,34.0,7.0,30.10,SSW,200,24.0,31.0,31,-99.99,,,-99.99,,2013-01-03 20:43:00,
2013-01-03 13:53:00,34.0,7.0,30.10,SSW,200,22.0,27.0,31,-99.99,,,-99.99,,2013-01-03 20:53:00,
2013-01-03 14:02:00,34.0,7.0,30.10,SSW,200,22.0,27.0,31,-99.99,,,-99.99,,2013-01-03 21:02:00,
2013-01-03 14:12:00,34.0,7.0,30.08,South,190,27.0,33.0,31,-99.99,,,-99.99,,2013-01-03 21:12:00,
2013-01-03 14:22:00,34.0,7.0,30.08,South,190,27.0,33.0,31,-99.99,,,-99.99,,2013-01-03 21:22:00,
2013-01-03 14:34:00,34.0,7.0,30.09,SSW,200,21.0,33.0,31,-99.99,,,-99.99,,2013-01-03 21:34:00,
2013-01-03 14:46:00,34.0,7.0,30.09,SSW,200,21.0,33.0,31,-99.99,,,-99.99,,2013-01-03 21:46:00,
2013-01-03 14:52:00,34.0,7.0,30.10,SSW,200,20.0,29.0,31,-99.99,,,-99.99,,2013-01-03 21:52:00,
2013-01-03 15:02:00,34.0,7.0,30.10,SSW,200,20.0,29.0,31,-99.99,,,-99.99,,2013-01-03 22:02:00,
2013-01-03 15:11:00,34.0,5.0,30.10,South,190,21.0,30.0,29,-99.99,,,-99.99,,2013-01-03 22:11:00,
2013-01-03 15:22:00,34.0,5.0,30.10,South,190,21.0,30.0,29,-99.99,,,-99.99,,2013-01-03 22:22:00,
2013-01-03 15:32:00,34.0,7.0,30.10,South,190,20.0,29.0,31,-99.99,,,-99.99,,2013-01-03 22:32:00,
2013-01-03 15:42:00,34.0,7.0,30.10,South,190,20.0,29.0,31,-99.99,,,-99.99,,2013-01-03 22:42:00,
2013-01-03 15:52:00,34.0,5.0,30.09,South,190,23.0,32.0,29,-99.99,,,-99.99,,2013-01-03 22:52:00,
2013-01-03 16:02:00,34.0,5.0,30.09,South,190,23.0,32.0,29,-99.99,,,-99.99,,2013-01-03 23:02:00,
2013-01-03 16:12:00,34.0,5.0,30.09,South,190,23.0,32.0,29,-99.99,,,-99.99,,2013-01-03 23:12:00,
2013-01-03 16:22:00,34.0,5.0,30.09,South,190,23.0,32.0,29,-99.99,,,-99.99,,2013-01-03 23:22:00,
2013-01-03 16:32:00,32.0,3.0,30.11,SSW,200,17.0,25.0,28,-99.99,,,-99.99,,2013-01-03 23:32:00,
2013-01-03 16:43:00,32.0,3.0,30.11,SSW,200,17.0,25.0,28,-99.99,,,-99.99,,2013-01-03 23:43:00,
2013-01-03 16:53:00,30.0,3.0,30.12,SSW,210,13.0,22.0,31,-99.99,,,-99.99,,2013-01-03 23:53:00,
2013-01-03 17:02:00,30.0,3.0,30.12,SSW,210,13.0,22.0,31,-99.99,,,-99.99,,2013-01-04 00:02:00,
2013-01-03 17:12:00,30.0,3.0,30.12,SSW,200,15.0,23.0,31,-99.99,,,-99.99,,2013-01-04 00:12:00,
2013-01-03 17:22:00,30.0,3.0,30.12,SSW,200,15.0,23.0,31,-99.99,,,-99.99,,2013-01-04 00:22:00,
2013-01-03 17:32:00,28.0,3.0,30.12,SW,220,10.0,17.0,33,-99.99,,,-99.99,,2013-01-04 00:32:00,
2013-01-03 17:42:00,28.0,3.0,30.12,SW,220,10.0,17.0,33,-99.99,,,-99.99,,2013-01-04 00:42:00,
2013-01-03 17:52:00,28.0,1.0,30.12,SSW,210,12.0,16.0,30,-99.99,,,-99.99,,2013-01-04 00:52:00,
2013-01-03 18:02:00,28.0,1.0,30.12,SSW,210,12.0,16.0,30,-99.99,,,-99.99,,2013-01-04 01:02:00,
2013-01-03 18:11:00,28.0,1.0,30.11,SSW,200,9.0,-999.0,30,-99.99,,,-99.99,,2013-01-04 01:11:00,
2013-01-03 18:22:00,28.0,1.0,30.11,SSW,200,9.0,-999.0,30,-99.99,,,-99.99,,2013-01-04 01:22:00,
2013-01-03 18:32:00,28.0,1.0,30.11,South,190,13.0,-999.0,30,-99.99,,,-99.99,,2013-01-04 01:32:00,
2013-01-03 18:42:00,28.0,1.0,30.11,South,190,13.0,-999.0,30,-99.99,,,-99.99,,2013-01-04 01:42:00,
2013-01-03 18:52:00,28.0,1.0,30.11,SSW,200,12.0,-999.0,30,-99.99,,,-99.99,,2013-01-04 01:52:00,
2013-01-03 19:02:00,28.0,1.0,30.11,SSW,200,12.0,-999.0,30,-99.99,,,-99.99,,2013-01-04 02:02:00,
2013-01-03 19:11:00,27.0,1.0,30.11,SSW,200,12.0,16.0,33,-99.99,,,-99.99,,2013-01-04 02:11:00,
2013-01-03 19:22:00,27.0,1.0,30.11,SSW,200,12.0,16.0,33,-99.99,,,-99.99,,2013-01-04 02:22:00,
2013-01-03 19:32:00,27.0,1.0,30.11,SSW,200,9.0,-999.0,33,-99.99,,,-99.99,,2013-01-04 02:32:00,
2013-01-03 19:42:00,27.0,1.0,30.11,SSW,200,9.0,-999.0,33,-99.99,,,-99.99,,2013-01-04 02:42:00,
2013-01-03 19:52:00,27.0,0.0,30.10,SSW,210,14.0,-999.0,30,-99.99,,,-99.99,,2013-01-04 02:52:00,
2013-01-03 20:02:00,27.0,0.0,30.10,SSW,210,14.0,-999.0,30,-99.99,,,-99.99,,2013-01-04 03:02:00,
2013-01-03 20:12:00,27.0,1.0,30.10,SSW,210,9.0,-999.0,33,-99.99,,,-99.99,,2013-01-04 03:12:00,
2013-01-03 20:22:00,27.0,1.0,30.10,SSW,210,9.0,-999.0,33,-99.99,,,-99.99,,2013-01-04 03:22:00,
2013-01-03 20:32:00,25.0,1.0,30.09,SSW,200,9.0,-999.0,35,-99.99,,,-99.99,,2013-01-04 03:32:00,
2013-01-03 20:42:00,25.0,1.0,30.09,SSW,200,9.0,-999.0,35,-99.99,,,-99.99,,2013-01-04 03:42:00,
2013-01-03 20:52:00,25.0,1.0,30.09,SSW,200,5.0,-999.0,35,-99.99,,,-99.99,,2013-01-04 03:52:00,
2013-01-03 21:02:00,25.0,1.0,30.09,SSW,200,5.0,-999.0,35,-99.99,,,-99.99,,2013-01-04 04:02:00,
2013-01-03 21:11:00,25.0,1.0,30.09,SSW,200,5.0,-999.0,35,-99.99,,,-99.99,,2013-01-04 04:11:00,
2013-01-03 21:22:00,25.0,1.0,30.09,SSW,200,5.0,-999.0,35,-99.99,,,-99.99,,2013-01-04 04:22:00,
2013-01-03 21:32:00,23.0,1.0,30.09,North,0,0.0,-999.0,38,-99.99,,,-99.99,,2013-01-04 04:32:00,
2013-01-03 21:42:00,23.0,1.0,30.09,North,0,0.0,-999.0,38,-99.99,,,-99.99,,2013-01-04 04:42:00,
2013-01-03 21:52:00,21.0,1.0,30.09,North,0,0.0,-999.0,41,-99.99,,,-99.99,,2013-01-04 04:52:00,
2013-01-03 22:03:00,21.0,1.0,30.09,North,0,0.0,-999.0,41,-99.99,,,-99.99,,2013-01-04 05:03:00,
2013-01-03 22:12:00,21.0,1.0,30.09,North,0,0.0,-999.0,41,-99.99,,,-99.99,,2013-01-04 05:12:00,
2013-01-03 22:22:00,21.0,1.0,30.09,North,0,0.0,-999.0,41,-99.99,,,-99.99,,2013-01-04 05:22:00,
2013-01-03 22:32:00,21.0,1.0,30.09,South,180,6.0,-999.0,41,-99.99,,,-99.99,,2013-01-04 05:32:00,
2013-01-03 22:42:00,21.0,1.0,30.09,South,180,6.0,-999.0,41,-99.99,,,-99.99,,2013-01-04 05:42:00,
2013-01-03 22:52:00,19.0,0.0,30.08,South,180,5.0,-999.0,41,-99.99,,,-99.99,,2013-01-04 05:52:00,
2013-01-03 23:02:00,19.0,0.0,30.08,South,180,5.0,-999.0,41,-99.99,,,-99.99,,2013-01-04 06:02:00,
2013-01-03 23:12:00,19.0,1.0,30.08,South,180,7.0,-999.0,44,-99.99,,,-99.99,,2013-01-04 06:12:00,
2013-01-03 23:22:00,19.0,1.0,30.08,South,180,7.0,-999.0,44,-99.99,,,-99.99,,2013-01-04 06:22:00,
2013-01-03 23:32:00,18.0,1.0,30.08,South,180,7.0,-999.0,48,-99.99,,,-99.99,,2013-01-04 06:32:00,
2013-01-03 23:52:00,19.0,1.0,30.07,South,180,7.0,-999.0,44,-99.99,,,-99.99,,2013-01-04 06:52:00,